Location: Newark
(35.2672°N, 80.7344°W)
Time: 20:20:55
(UTC+00:00)

Transit 2A Rocket - Pass Details

Date: 01 February 2020
Orbit: 592 x 911 km, 66.7° (Epoch: 19 February)

Event Time Altitude Azimuth Distance (km) Brightness Sun altitude
Rises 09:12:43 0° 229° (SW) 2,840 - -38.9°
Reaches altitude 10° 09:15:10 10° 240° (WSW) 1,924 - -38.4°
Maximum altitude 09:18:58 30° 303° (WNW) 1,061 - -37.7°
Drops below altitude 10° 09:22:48 10° 6° (N) 1,939 - -36.9°
Sets 09:25:18 0° 17° (NNE) 2,866 - -36.4°
